EGXE

Details ICAO EGXE
Name RAF Leeming
Region United Kingdom
Timezone Europe/London (UTC+1.0)
Plans Departing 8
Arriving 6
Stats Elevation 132 ft / 40 m (AMSL)
Location 54.292565° -1.535453°
Runways 1
Magnetic Variation 1.240° W
Sunrise 2018-05-23 03:51:15 UTC / 2018-05-23 04:51:15 Local
Sunset 2018-05-23 20:17:24 UTC / 2018-05-23 21:17:24 Local
Advertisement - Login to hide

Runways

ID Width Length Bearing (true) Bearing (mag) Surface Threshold Offset Overrun Length
16 151 ft / 46 m 7,530 ft / 2,295 m 155.77° 157.01° Asphalt 0 ft / 0 m 0 ft / 0 m
34 151 ft / 46 m 7,530 ft / 2,295 m 335.78° 337.02° Asphalt 0 ft / 0 m 0 ft / 0 m

Approach Navaids

Runway Type Ident Frequency Range Bearing (true) Bearing (mag) Slope Elevation
16 Localiser LI 110.30 MHz 18 nm / 33 km 155.78° 157.02° - 132 ft / 40 m (AMSL)
16 Glidescope LI 110.30 MHz 10 nm / 19 km 155.77° 157.01° 3.00° 132 ft / 40 m (AMSL)

Map

Weather


0- 5 10 15 20 25 30 35+ Temperature / ° C

Clouds and Precipitation
Forecast for 2018-05-23 12:00 UTC. Updated 39 minutes ago

Ground ~20,000 ft ~40,000 ft Winds

METAR

EGXE 231050Z 02010KT 9999 BKN017 12/08 Q1028 WHT NOSIG

TAF

Not found

Frequencies

Tower 122.10 MHz Leeming Tower
Approach 122.10 MHz Leeming Ground
Approach 125.00 MHz Leeming Approach
Warning: Do not use this data for real-world aviation or navigation. No guarantee of current accuracy is given.